Tracking 25709 objects as of 23-May-2022
HD Live streaming from Space Station
objects crossing your sky now

BEIDOU 3M8

Track BEIDOU 3M8 now!
BEIDOU 3M8 is classified as:


NORAD ID: 43246
Int'l Code: 2018-029B
Perigee: 21,521.4 km
Apogee: 21,548.7 km
Inclination: 55.2 °
Period: 773.2 minutes
Semi major axis: 27905 km
RCS: Unknown
Launch date: March 29, 2018
Source: People's Republic of China (PRC)
Launch site: Xichang Space Center, China (XSC)
aabbcc
Your satellite tracking list
Your tracking list is empty




NASA's NSSDC Master Catalog

Two Line Element Set (TLE):
1 43246U 18029B   22142.60475863 -.00000093  00000-0  10000-3 0  9996
2 43246  55.2331 351.3508 0004889  10.6600 352.4694  1.86232895 28206
Source of the keplerian elements: AFSPC